Flag for Russia Weather past 2 weeks in Sochi, Russia

Now
84 °F

Broken clouds.


Feels Like: 82 °F
Forecast: 61 / 72 °F
Wind: 10 mph from Southeast

Location: Adler

Current Time: May 28, 2015 at 9:34:43 AM

Latest Report: May 28, 2015 at 9:00 AM


Visibility: N/A

Pressure: 29.56 "Hg

Humidity: 31%

Dew point: 50 °F

Location of SochiLocation

Historic Weather in Sochi — Graph

°F

Sochi temperature yesterday

Maximum temperature yesterday: 77 °F (at 12:00 PM)
Minimum temperature yesterday: 63 °F (at 4:00 AM)
Average temperature yesterday: 70 °F

Past Weeks' High & Low Weather Summary

 TemperatureHumidityPressure
High84 °F (May 21, 10:30 AM)94% (May 17, 8:00 AM)30.15 "Hg (May 17, 8:00 AM)
Low52 °F (May 18, 2:30 AM)26% (May 20, 4:30 PM)29.53 "Hg (May 28, 4:30 AM)
Average66 °F67%29.92 "Hg
* Reported May 13 8:00 AM — May 28 8:30 AM, Sochi, Weather by CustomWeather, © 2015

Note: Actual official high and low records may vary slightly from our data, if they occured in-between our weather recording intervals... More about our weather records

Advertising

Sochi weather history for previous 24 hours

 ConditionsComfort  
Time TempWeatherWind HumidityBarometerVisibility
8:30 AM
Thu, May 28
82 °FBroken clouds.6 mph35%29.56 "HgN/A
8:00 AM79 °FBroken clouds.8 mph39%29.56 "HgN/A
7:30 AM81 °FPartly sunny.3 mph37%29.56 "HgN/A
7:00 AM73 °FPartly sunny.8 mph47%29.53 "HgN/A
6:30 AM72 °FPartly sunny.13 mph50%29.53 "HgN/A
5:30 AM70 °FPassing clouds.15 mph53%29.53 "HgN/A
5:00 AM70 °FPassing clouds.15 mph57%29.53 "HgN/A
4:30 AM72 °FPassing clouds.10 mph53%29.53 "HgN/A
4:00 AM68 °FPassing clouds.13 mph56%29.56 "HgN/A
3:30 AM66 °FPassing clouds.6 mph64%29.59 "HgN/A
3:00 AM66 °FPassing clouds.1 mph68%29.59 "HgN/A
2:30 AM66 °FPassing clouds.No wind68%29.56 "HgN/A
2:00 AM68 °FPassing clouds.No wind69%29.56 "HgN/A
1:30 AM68 °FOvercast.10 mph64%29.59 "HgN/A
1:00 AM68 °FOvercast.1 mph69%29.59 "HgN/A
12:30 AM68 °FOvercast.8 mph69%29.62 "HgN/A
12:00 AM66 °FOvercast.3 mph73%29.62 "HgN/A
11:30 PM
Wed, May 27
66 °FClear.3 mph73%29.62 "HgN/A
11:00 PM66 °FClear.8 mph73%29.62 "HgN/A
10:30 PM66 °FClear.6 mph78%29.65 "HgN/A
10:00 PM68 °FClear.1 mph73%29.65 "HgN/A
9:30 PM68 °FClear.6 mph73%29.65 "HgN/A
9:00 PM68 °FClear.6 mph73%29.65 "HgN/A
8:30 PM68 °FClear.3 mph83%29.65 "HgN/A
8:00 PM70 °FClear.3 mph78%29.65 "HgN/A
7:30 PM72 °FClear.1 mph69%29.68 "HgN/A
7:00 PM73 °FClear.3 mph65%29.68 "HgN/A
6:30 PM75 °FClear.1 mph65%29.68 "HgN/A
6:00 PM75 °FClear.No wind61%29.71 "HgN/A
5:30 PM73 °FClear.3 mph61%29.71 "HgN/A
5:00 PM75 °FClear.6 mph61%29.71 "HgN/A
4:30 PM75 °FClear.3 mph61%29.71 "HgN/A
4:00 PM75 °FClear.3 mph57%29.71 "HgN/A
3:30 PM75 °FClear.3 mph57%29.74 "HgN/A
3:00 PM75 °FClear.6 mph54%29.74 "HgN/A
2:30 PM77 °FScattered clouds.3 mph54%29.74 "HgN/A
2:00 PM77 °FScattered clouds.3 mph54%29.74 "HgN/A
1:30 PM77 °FScattered clouds.3 mph54%29.77 "HgN/A
1:00 PM75 °FPassing clouds.6 mph57%29.77 "HgN/A
12:30 PM77 °FPassing clouds.6 mph57%29.80 "HgN/A
12:00 PM77 °FPassing clouds.6 mph61%29.80 "HgN/A
11:30 AM75 °FPassing clouds.6 mph65%29.80 "HgN/A
11:00 AM75 °FPassing clouds.8 mph65%29.80 "HgN/A
10:30 AM73 °FScattered clouds.6 mph69%29.83 "HgN/A
10:00 AM73 °FScattered clouds.8 mph69%29.83 "HgN/A
9:30 AM72 °FScattered clouds.8 mph73%29.83 "HgN/A
9:00 AM72 °FPassing clouds.10 mph73%29.83 "HgN/A
Weather by CustomWeather, © 2015

See weather overviewHow to use our weather pages